Other Public Products
Issued by NWS Charleston, SC

Current Version | Previous Version | Text Only | Print | Product List | Glossary Off
Versions: 1 2 3 4 5 6 7 8 9 10 11 12 13 14 15 16 17 18 19 20 21 22 23 24 25 26 27 28 29 30 31 32 33 34 35 36 37 38 39 40 41 42 43 44 45 46 47 48 49 50

523
FPUS82 KCHS 211927
OPUCHS

TEST...KCHS/KSAV Gateway Observations...TEST
National Weather Service Charleston SC
200 PM EST TUE NOV 21 2017

NOTE: "fair" indicates few or no clouds below 12,000 feet with no
significant weather and/or obstructions to visibility.

SCZ050-WAZ558-NCZ071-TXZ119-213-PAZ071-DCZ001-FLZ074-172-MI076-
NYZ176-178-MAZ016-IL014-TNZ027-NJZ106-GAZ044-MD014-212000-

...Gateway Observations for Charleston International...

CITY           SKY/WX    TMP DP  RH WIND       PRES   REMARKS
Chas Airport   CLOUDY    71  58  63 SE7       30.06F
Seattle        RAIN      45  44  97 CALM      29.93F FOG
Charlotte      CLOUDY    60  46  59 W3        30.09F
Dallas DFW     PTSUNNY   68  48  48 CALM      29.90R
Dallas Love    PTSUNNY   67  51  56 CALM      29.91S
Philladelphia  PTSUNNY   58  28  32 SW13      30.04F
Wash National  CLOUDY    61  38  42 S16G26    30.04F
Baltimore      CLOUDY    60  34  37 SW16G24   30.02F
Miami          MOSUNNY   83  69  62 SE9G18    29.92F
Detroit        CLOUDY    49  32  52 SW16      29.76R
Newark         PTSUNNY   60  30  32 SW15      30.03F
Laguardia      PTSUNNY   59  29  31 SW14      30.04F
J F K          PTSUNNY   56  44  64 S15       30.06F
Boston Logan   MOSUNNY   59  30  33 SW22G32   29.99F
Ft. Lauderdale MOSUNNY   81  70  69 SE12      29.92F
Chicago O`Hare CLOUDY    40  18  41 W17       29.84R WCI  31
Chicago Midway CLOUDY    40  23  50 W14       29.86R WCI  32
Houston Bush   CLOUDY    73  61  65 VRB3      29.87F
Houston Hobby  CLOUDY    73  62  68 SW7       29.86F
Nashville      PTSUNNY   60  29  30 S15       30.02F
Atlanta        PTSUNNY   64  52  64 CALM      30.04F

$$

GAZ044-118-TXZ119-213-NCZ071-DCZ001-MDZ014-506-PAZ021-071-NJZ106-
NYZ176-178-MAZ106-OHZ011-021-055-MIZ076-KYZ091-ILZ014-INZ047-
MNZ060-ONZ431-212000-

...Gateway Observations for Savannah International...

CITY           SKY/WX    TMP DP  RH WIND       PRES   REMARKS
Savannah Arpt  CLOUDY    73  59  61 E8        30.02F
Atlanta        PTSUNNY   64  52  64 CALM      30.04F
Charlotte      CLOUDY    60  46  59 W3        30.09F
Dallas DFW     PTSUNNY   68  48  48 CALM      29.90R
Houston Bush   CLOUDY    73  61  65 VRB3      29.87F
Wash National  CLOUDY    61  38  42 S16G26    30.04F
Wash Dulles    PTSUNNY   58  34  40 SW15      30.03F
Baltimore      CLOUDY    60  34  37 SW16G24   30.02F
Philadelphia   PTSUNNY   58  28  32 SW13      30.04F
Newark         PTSUNNY   60  30  32 SW15      30.03F
Laguardia      PTSUNNY   59  29  31 SW14      30.04F
J F K          PTSUNNY   56  44  64 S15       30.06F
Boston         MOSUNNY   59  30  33 SW22G32   29.99F
Pittsburg      PTSUNNY   54  26  34 SW21G28   29.89F
Akron          PTSUNNY   52  27  38 SW20G32   29.86R
Cleveland      PTSUNNY   55  31  39 SW23G30   29.83S
Cincinnati     PTSUNNY   55  32  41 SW12G24   29.92F
Columbus       CLOUDY    53  30  41 SW20G30   29.90F
Detroit        CLOUDY    49  32  52 SW16      29.76R
Chicago O`Hare CLOUDY    40  18  41 W17       29.84R WCI  31
Minneapolis    MOSUNNY   27  11  51 NW20G28   30.12R WCI  13
Indianapolis   PTSUNNY   53  34  48 SW16      29.90R
Toronto Canada MOSUNNY   52  34  50 SW21G30   29.67R

$$




USA.gov is the U.S. government's official web portal to all federal, state and local government web resources and services.